{"data":{"norad_id":47268,"epoch":"2026-05-25T02:40:06.839328Z","epoch_age_seconds":75819,"freshness":"FRESH","line1":"1 47268U 20100L   26145.11119027  .00000451  00000+0  12178-2 0  9990","line2":"2 47268  87.8962 355.2494 0001614  85.2126 274.9187 13.12441426261529","mean_motion":13.12441426,"eccentricity":0.0001614,"inclination_deg":87.8962,"raan_deg":355.2494,"arg_perigee_deg":85.2126,"mean_anomaly_deg":274.9187,"bstar":0.0012178,"rev_number":26152,"period_min":109.71918224105,"perigee_km":1212.5040337188,"apogee_km":1214.9546881801,"semimajor_km":7591.8663609495,"source":"CELESTRAK","updated_at":"2026-05-25T13:38:22.381128Z"}}